User: anonymous   Login
Location: Lafig�re
(44.4503°N, 4.0357°E)
Time: 15:23:11
(UTC+00:00)
Language:

Meteor 1-15 Rocket - Orbit

View from above orbital plane
View from above orbital plane
View from above satellite
View from above satellite

Ground track
Ground track

The orbit data is extracted from the following two-line orbital elements,

1  6660U 73034B   21138.23333118  .00000149  00000-0  82792-4 0  9990
2  6660  81.2328  60.2222 0047664  29.7252 330.6609 14.05861663459467
Epoch (UTC): 18 May 2021 05:35:59
Eccentricity: 0.0047664
inclination: 81.2328°
perigee height: 839 km
apogee height: 908 km
right ascension of ascending node: 60.2222°
argument of perigee: 29.7252°
revolutions per day: 14.05861663
mean anomaly at epoch: 330.6609°
orbit number at epoch: 45946

The dashed part of the orbit path shows where the satellite is in the earth's shadow,  

DLR